Location: Newark
(40.7066°N, 111.8219°W)
Time: 07:25:48
(UTC+00:00)

Transit 2A Rocket - Pass Details

Date: 29 November 2019
Orbit: 594 x 909 km, 66.7° (Epoch: 14 December)

Event Time Altitude Azimuth Distance (km) Brightness Sun altitude
Rises 10:55:32 0° 336° (NNW) 2,857 - -40.0°
Reaches altitude 10° 10:57:51 10° 344° (NNW) 1,969 - -39.6°
Maximum altitude 11:02:02 41° 56° (NE) 917 - -38.8°
Exits shadow 11:06:10 11° 125° (SE) 1,978 7.6 -38.0°
Drops below altitude 10° 11:06:27 10° 127° (SE) 2,082 7.7 -38.0°
Sets 11:08:57 0° 134° (SE) 3,041 8.6 -37.5°
